Regional Weather Roundup
Issued by NWS

Home | Current Version | Previous Version | Graphics & Text | Print | Product List | Glossary Off
Versions: 1 2 3 4 5 6 7 8 9 10 11 12 13 14 15 16 17 18 19 20 21 22 23 24 25 26 27 28 29 30 31 32 33 34 35 36 37 38 39 40 41 42 43 44 45 46 47 48 49 50

291
ASUS43 KDMX 242206
RWRIA

WEATHER ROUNDUP FOR IOWA
NATIONAL WEATHER SERVICE DES MOINES IA
400 PM CST TUE JAN 24 2017

NOTE: "FAIR" INDICATES FEW OR NO CLOUDS BELOW 12,000 FEET WITH NO
SIGNIFICANT WEATHER AND/OR OBSTRUCTIONS TO VISIBILITY.

* - THESE STATIONS ARE NOT NWS STATIONS...THUS NOT UNDER NWS
QUALITY CONTROL.  THEY ALSO DO NOT REPORT WEATHER SUCH
AS PRECIPITATION OR FOG.

IAZ001>003-012>014-020>022-031>034-043>046-242300-
   NORTHWEST IOWA

CITY           SKY/WX    TMP DP  RH WIND       PRES   REMARKS
CARROLL *      CLOUDY    32  32 100 E18G26    29.59S FOG     WCI  20
CHEROKEE *     SNOW      31  31 100 NE12      29.62F VSB 1/4 WCI  21
DENISON *      CLOUDY    32  30  93 E18G25    29.56R WCI  20
LE MARS *      LGT SNOW  32  30  93 NE16G23   29.62S VSB 3/4 WCI  21
ORANGE CITY *  SNOW      30  30 100 E10       29.63R VSB 1/2 WCI  21
SHELDON *      SNOW      30  30 100 NE20      29.63F VSB 1/2 WCI  18
SIOUX CITY     SNOW      32  30  92 E17       29.58S VSB 1/4 WCI  21
SPENCER        SNOW      30  29  96 NE20      29.65F VSB 1/2 WCI  17
STORM LAKE *   LGT SNOW  30  28  93 NE28      29.59F VSB 3/4 WCI  16
$$

IAZ055>058-069>071-079>083-090>094-242300-
   SOUTHWEST IOWA

CITY           SKY/WX    TMP DP  RH WIND       PRES   REMARKS
ATLANTIC *     CLOUDY    32  30  93 E18G24    29.54R WCI  20
AUDUBON *      CLOUDY    30  28  93 E20G28    29.55F FOG     WCI  18
CLARINDA *     CLOUDY    37  34  87 E12G20    29.53S WCI  30
COUNCIL BLFS * CLOUDY    34  32  93 E14       29.53F WCI  24
CRESTON *      CLOUDY    32  32 100 E17G28    29.54F WCI  21
HARLAN  *      CLOUDY    32  32 100 E13G25    29.58R WCI  22
LAMONI         MOSUNNY   38  31  76 E15G23    29.53F WCI  29
RED OAK *      CLOUDY    36  32  87 E12       29.53S WCI  27
SHENANDOAH *   CLOUDY    39  32  75 E13       29.52S WCI  32
$$

IAZ047>049-059>061-072>074-084-242300-
   CENTRAL IOWA

CITY           SKY/WX    TMP DP  RH WIND       PRES   REMARKS
AMES           CLOUDY    32  31  96 E12G21    29.64S WCI  23
ANKENY *       CLOUDY    32  30  93 E13G20    29.65R WCI  22
BOONE *        CLOUDY    32  32 100 E15       29.62R FOG     WCI  22
CHARITON *     CLOUDY    34  32  93 E17       29.58F WCI  23
DES MOINES     CLOUDY    33  30  88 E12G17    29.63S WCI  24
GRINNELL*      CLOUDY    32  31  96 E21G26    29.63F FOG     WCI  20
KNOXVILLE *    CLOUDY    34  30  86 E13G18    29.61R WCI  25
MARSHALLTOWN   CLOUDY    32  30  92 E22       29.63F FOG     WCI  19
NEWTON *       CLOUDY    32  30  93 E18G28    29.62F FOG     WCI  20
PELLA *        CLOUDY    33  31  93 E10       29.65R WCI  25
PERRY *        CLOUDY    32  31  96 E18G26    29.60F FOG     WCI  20
$$

IAZ004>006-015-016-023>025-035-036-242300-
   NORTH CENTRAL IOWA

CITY           SKY/WX    TMP DP  RH WIND       PRES   REMARKS
ALGONA *       SNOW      30  30 100 NE17      29.67F VSB 1/4 WCI  18
CLARION *      FOG       30  32 100 E17       29.66F VSB 1   WCI  18
ESTHERVILLE    CLOUDY    29  29 100 E16       29.69F FOG     WCI  17
FORT DODGE *   CLOUDY    30  27  86 E15       29.65R WCI  19
MASON CITY     CLOUDY    31  28  89 E10       29.72F WCI  22
FOREST CITY *  CLOUDY    32  30  93 E6        29.71F WCI  26
WEBSTER CITY * CLOUDY    32 N/A N/A E21       29.63R WCI  20
IOWA FALLS *   FLURRIES  32  31  94 E17       29.67F WCI  21
$$

IAZ007>011-017>019-026>030-037>042-050>054-066-242300-
   NORTHEAST IOWA

CITY           SKY/WX    TMP DP  RH WIND       PRES   REMARKS
CEDAR RAPIDS   CLOUDY    33  31  92 E16       29.68F FOG     WCI  23
CHARLES CITY * CLOUDY    32  32 100 E9        29.74F WCI  24
CLINTON *      CLOUDY    36  33  89 E12       29.77F WCI  28
DECORAH *      CLOUDY    32  30  93 E7        29.75F WCI  26
DUBUQUE        CLOUDY    32  30  92 E8        29.77F WCI  25
MONTICELLO *   CLOUDY    34  32  93 E7        29.75F WCI  28
OELWEIN *      CLOUDY    32  32 100 E13       29.73F FOG     WCI  22
WATERLOO       LGT SNOW  32  29  88 E10       29.72F FOG     WCI  24
$$

IAZ064-065-067-068-078-242300-
   EAST CENTRAL IOWA

CITY           SKY/WX    TMP DP  RH WIND       PRES   REMARKS
DAVENPORT      CLOUDY    36  32  85 E12       29.76F WCI  28
IOWA CITY      CLOUDY    36  31  82 NE17G23   29.70F WCI  26
MUSCATINE *    CLOUDY    37  32  81 E12G21    29.71F WCI  30
QUAD CITIES    CLOUDY    37  32  82 E13       29.75F WCI  29
$$

IAZ062-063-075>077-085>089-095>099-242300-
   SOUTHEAST IOWA

CITY           SKY/WX    TMP DP  RH WIND       PRES   REMARKS
BURLINGTON     CLOUDY    39  33  79 E15G22    29.67F WCI  31
FAIRFIELD *    CLOUDY    36  32  87 E18G26    29.61F WCI  25
FORT MADISON * CLOUDY    39  37  93 E15G22    29.63F WCI  31
KEOKUK *       CLOUDY    39 N/A N/A E20       29.64F WCI  30
OSKALOOSA *    CLOUDY    33  31  93 E18G29    29.61F FOG     WCI  22
CENTERVILLE *  CLOUDY    36  36 100 E10       29.61R WCI  28
OTTUMWA        CLOUDY    35  30  82 E21G29    29.59F WCI  24
WASHINGTON *   CLOUDY    36  34  93 E18       29.68F WCI  25
$$

ABBREVIATIONS USED IN REMARKS
   TC - TEMPERATURES IN CELSIUS
  WCI - WIND CHILL INDEX
   HX - HEAT INDEX
  VSB - VISIBILITY
$$





USA.gov is the U.S. government's official web portal to all federal, state and local government web resources and services.